Time,TemperatureF,DewpointF,PressureIn,WindDirection,WindDirectionDegrees,WindSpeedMPH,WindSpeedGustMPH,Humidity,HourlyPrecipIn,Conditions,Clouds,dailyrainin,SoftwareType,DateUTC
2013-08-01 00:04:00,79.5,73.5,29.88,North,0,1.1,0.0,82,0.00,CLR,,0.00,WeatherDisplay:10.37,2013-08-01 05:04:00,
2013-08-01 00:09:00,79.7,73.7,29.88,SE,135,1.1,0.0,82,0.00,CLR,,0.00,WeatherDisplay:10.37,2013-08-01 05:09:00,
2013-08-01 00:14:00,79.5,73.5,29.89,SW,225,1.6,0.0,82,0.00,CLR,,0.00,WeatherDisplay:10.37,2013-08-01 05:14:00,
2013-08-01 00:19:00,79.5,73.5,29.89,West,270,1.1,0.0,82,0.00,CLR,,0.00,WeatherDisplay:10.37,2013-08-01 05:19:00,
2013-08-01 00:24:00,79.5,73.5,29.88,South,180,1.1,0.0,82,0.00,CLR,,0.00,WeatherDisplay:10.37,2013-08-01 05:24:00,
2013-08-01 00:26:00,32.4,31.1,30.28,SW,225,0.0,0.0,95,0.00,,,0.00,Cumulus v1.9.2,2013-08-01 05:26:00,
2013-08-01 00:29:00,79.5,73.5,29.88,West,270,1.1,0.0,82,0.00,CLR,,0.00,WeatherDisplay:10.37,2013-08-01 05:29:00,
2013-08-01 00:34:00,79.5,73.5,29.88,NE,45,1.1,0.0,82,0.00,CLR,,0.00,WeatherDisplay:10.37,2013-08-01 05:34:00,
2013-08-01 00:39:00,79.5,73.5,29.88,South,180,3.5,0.0,82,0.00,CLR,,0.00,WeatherDisplay:10.37,2013-08-01 05:39:00,
2013-08-01 00:44:00,79.5,73.5,29.88,South,180,3.5,3.5,82,0.00,CLR,,0.00,WeatherDisplay:10.37,2013-08-01 05:44:00,
2013-08-01 00:49:00,79.5,73.5,29.88,SE,135,0.0,0.0,82,0.00,CLR,,0.00,WeatherDisplay:10.37,2013-08-01 05:49:00,
2013-08-01 00:54:00,79.5,73.5,29.88,South,180,0.0,0.0,82,0.00,CLR,,0.00,WeatherDisplay:10.37,2013-08-01 05:54:00,
2013-08-01 00:56:00,31.1,29.8,30.28,NW,315,0.0,0.0,95,0.00,,,0.00,Cumulus v1.9.2,2013-08-01 05:56:00,
2013-08-01 00:59:00,79.3,73.7,29.88,South,180,0.0,1.0,83,0.00,CLR,,0.00,WeatherDisplay:10.37,2013-08-01 05:59:00,
2013-08-01 01:04:00,79.3,73.7,29.88,SSW,199,0.0,1.0,83,0.00,CLR,,0.00,WeatherDisplay:10.37,2013-08-01 06:04:00,
2013-08-01 01:09:00,79.2,73.5,29.88,NW,306,0.0,0.0,83,0.00,CLR,,0.00,WeatherDisplay:10.37,2013-08-01 06:09:00,
2013-08-01 01:14:00,79.2,73.5,29.88,NNE,21,0.0,0.0,83,0.00,CLR,,0.00,WeatherDisplay:10.37,2013-08-01 06:14:00,
2013-08-01 01:19:00,79.0,73.7,29.88,NE,45,0.0,0.0,84,0.00,CLR,,0.00,WeatherDisplay:10.37,2013-08-01 06:19:00,
2013-08-01 01:24:00,79.0,73.7,29.87,NE,53,0.0,0.0,84,0.00,CLR,,0.00,WeatherDisplay:10.37,2013-08-01 06:24:00,
2013-08-01 01:26:00,30.9,29.7,30.28,NW,315,0.7,0.7,95,0.00,,,0.00,Cumulus v1.9.2,2013-08-01 06:26:00,
2013-08-01 01:29:00,78.8,73.9,29.88,West,259,0.0,0.0,85,0.00,CLR,,0.00,WeatherDisplay:10.37,2013-08-01 06:29:00,
2013-08-01 01:34:00,78.6,73.7,29.88,NW,309,0.0,0.0,85,0.00,CLR,,0.00,WeatherDisplay:10.37,2013-08-01 06:34:00,
2013-08-01 01:39:00,78.6,73.7,29.88,NW,315,0.0,0.0,85,0.00,CLR,,0.00,WeatherDisplay:10.37,2013-08-01 06:39:00,
2013-08-01 01:44:00,78.6,73.7,29.88,NW,315,0.0,0.0,85,0.00,CLR,,0.00,WeatherDisplay:10.37,2013-08-01 06:44:00,
2013-08-01 01:49:00,78.4,73.9,29.87,WSW,250,0.0,0.0,86,0.00,CLR,,0.00,WeatherDisplay:10.37,2013-08-01 06:49:00,
2013-08-01 01:55:00,78.4,73.9,29.87,South,180,0.0,0.0,86,0.00,CLR,,0.00,WeatherDisplay:10.37,2013-08-01 06:55:00,
2013-08-01 01:56:00,30.7,29.5,30.28,NW,315,0.7,0.7,95,0.00,,,0.00,Cumulus v1.9.2,2013-08-01 06:56:00,
2013-08-01 02:00:00,78.3,74.1,29.87,South,180,0.0,0.0,87,0.00,CLR,,0.00,WeatherDisplay:10.37,2013-08-01 07:00:00,
2013-08-01 02:05:00,78.3,74.1,29.87,South,180,0.0,0.0,87,0.00,CLR,,0.00,WeatherDisplay:10.37,2013-08-01 07:05:00,
2013-08-01 02:10:00,78.3,74.1,29.86,South,180,0.0,0.0,87,0.00,CLR,,0.00,WeatherDisplay:10.37,2013-08-01 07:10:00,
2013-08-01 02:15:00,78.1,74.2,29.86,North,0,0.0,0.0,88,0.00,CLR,,0.00,WeatherDisplay:10.37,2013-08-01 07:15:00,
2013-08-01 02:20:00,78.1,74.2,29.86,North,0,0.0,0.0,88,0.00,CLR,,0.00,WeatherDisplay:10.37,2013-08-01 07:20:00,
2013-08-01 02:25:00,78.1,74.2,29.86,North,0,0.0,0.0,88,0.00,CLR,,0.00,WeatherDisplay:10.37,2013-08-01 07:25:00,
2013-08-01 02:27:00,31.1,30.1,30.28,North,360,0.7,0.7,96,0.00,,,0.00,Cumulus v1.9.2,2013-08-01 07:27:00,
2013-08-01 02:30:00,78.1,74.2,29.86,SE,135,0.0,0.0,88,0.00,CLR,,0.00,WeatherDisplay:10.37,2013-08-01 07:30:00,
2013-08-01 02:35:00,78.1,74.6,29.86,SE,135,0.0,0.0,89,0.00,CLR,,0.00,WeatherDisplay:10.37,2013-08-01 07:35:00,
2013-08-01 02:40:00,77.7,74.2,29.85,SE,135,0.0,0.0,89,0.00,CLR,,0.00,WeatherDisplay:10.37,2013-08-01 07:40:00,
2013-08-01 02:45:00,77.7,74.2,29.86,SE,135,0.0,0.0,89,0.00,CLR,,0.00,WeatherDisplay:10.37,2013-08-01 07:45:00,
2013-08-01 02:50:00,77.7,74.6,29.86,SE,135,0.0,0.0,90,0.00,CLR,,0.00,WeatherDisplay:10.37,2013-08-01 07:50:00,
2013-08-01 02:55:00,77.7,74.6,29.86,SE,135,0.0,0.0,90,0.00,CLR,,0.00,WeatherDisplay:10.37,2013-08-01 07:55:00,
2013-08-01 02:57:00,31.1,30.1,30.28,North,360,0.0,0.0,96,0.00,,,0.00,Cumulus v1.9.2,2013-08-01 07:57:00,
2013-08-01 03:00:00,77.7,74.6,29.86,SE,135,0.0,0.0,90,0.00,CLR,,0.00,WeatherDisplay:10.37,2013-08-01 08:00:00,
2013-08-01 03:05:00,77.7,74.6,29.85,SE,135,0.0,0.0,90,0.00,CLR,,0.00,WeatherDisplay:10.37,2013-08-01 08:05:00,
2013-08-01 03:10:00,77.5,74.7,29.86,SE,135,0.0,0.0,91,0.00,CLR,,0.00,WeatherDisplay:10.37,2013-08-01 08:10:00,
2013-08-01 03:15:00,77.4,74.5,29.87,SE,135,0.0,0.0,91,0.00,CLR,,0.00,WeatherDisplay:10.37,2013-08-01 08:15:00,
2013-08-01 03:20:00,77.5,74.7,29.87,SE,135,0.0,0.0,91,0.00,CLR,,0.00,WeatherDisplay:10.37,2013-08-01 08:20:00,
2013-08-01 03:26:00,77.4,74.5,29.87,SW,225,0.0,0.0,91,0.00,CLR,,0.00,WeatherDisplay:10.37,2013-08-01 08:26:00,
2013-08-01 03:27:00,32.0,31.0,30.27,North,360,0.0,0.0,96,0.00,,,0.00,Cumulus v1.9.2,2013-08-01 08:27:00,
2013-08-01 03:31:00,77.4,74.5,29.87,SW,225,0.0,0.0,91,0.00,CLR,,0.00,WeatherDisplay:10.37,2013-08-01 08:31:00,
2013-08-01 03:36:00,77.4,74.5,29.87,SW,225,0.0,0.0,91,0.00,CLR,,0.00,WeatherDisplay:10.37,2013-08-01 08:36:00,
2013-08-01 03:41:00,77.2,75.0,29.87,North,0,0.0,0.0,93,0.00,CLR,,0.00,WeatherDisplay:10.37,2013-08-01 08:41:00,
2013-08-01 03:47:00,77.2,75.0,29.87,North,0,0.0,0.0,93,0.00,CLR,,0.00,WeatherDisplay:10.37,2013-08-01 08:47:00,
2013-08-01 03:52:00,77.2,75.0,29.87,North,0,0.0,0.0,93,0.00,CLR,,0.00,WeatherDisplay:10.37,2013-08-01 08:52:00,
2013-08-01 03:57:00,77.2,75.0,29.87,North,0,1.1,0.0,93,0.00,CLR,,0.00,WeatherDisplay:10.37,2013-08-01 08:57:00,
2013-08-01 04:03:00,77.2,75.0,29.87,North,0,0.0,0.0,93,0.00,CLR,,0.00,WeatherDisplay:10.37,2013-08-01 09:03:00,
2013-08-01 04:08:00,77.0,74.8,29.87,NE,45,0.0,0.0,93,0.00,CLR,,0.00,WeatherDisplay:10.37,2013-08-01 09:08:00,
2013-08-01 04:13:00,77.0,75.1,29.87,SE,135,0.0,0.0,94,0.00,CLR,,0.00,WeatherDisplay:10.37,2013-08-01 09:13:00,
2013-08-01 04:18:00,77.0,75.1,29.87,SE,135,0.0,0.0,94,0.00,CLR,,0.00,WeatherDisplay:10.37,2013-08-01 09:18:00,
2013-08-01 04:23:00,77.0,75.5,29.87,SE,135,0.0,0.0,95,0.00,CLR,,0.00,WeatherDisplay:10.37,2013-08-01 09:23:00,
2013-08-01 04:27:00,36.0,35.2,30.29,North,360,0.0,0.0,97,0.00,,,0.00,Cumulus v1.9.2,2013-08-01 09:27:00,
2013-08-01 04:28:00,77.0,75.5,29.87,SE,135,0.0,0.0,95,0.00,CLR,,0.00,WeatherDisplay:10.37,2013-08-01 09:28:00,
2013-08-01 04:34:00,77.0,75.5,29.88,SE,135,0.0,0.0,95,0.00,CLR,,0.00,WeatherDisplay:10.37,2013-08-01 09:34:00,
2013-08-01 04:39:00,77.0,75.5,29.87,SE,135,0.0,0.0,95,0.00,CLR,,0.00,WeatherDisplay:10.37,2013-08-01 09:39:00,
2013-08-01 04:44:00,77.0,75.5,29.88,SE,135,0.0,0.0,95,0.00,CLR,,0.00,WeatherDisplay:10.37,2013-08-01 09:44:00,
2013-08-01 04:49:00,77.0,75.8,29.88,SE,135,0.0,0.0,96,0.00,CLR,,0.00,WeatherDisplay:10.37,2013-08-01 09:49:00,
2013-08-01 04:54:00,77.0,75.8,29.88,SE,135,0.0,0.0,96,0.00,CLR,,0.00,WeatherDisplay:10.37,2013-08-01 09:54:00,
2013-08-01 04:57:00,42.1,41.6,30.28,North,360,0.0,0.0,98,0.00,,,0.00,Cumulus v1.9.2,2013-08-01 09:57:00,
2013-08-01 04:59:00,77.0,75.8,29.88,SE,135,0.0,0.0,96,0.00,CLR,,0.00,WeatherDisplay:10.37,2013-08-01 09:59:00,
2013-08-01 05:04:00,76.8,75.6,29.88,SE,135,0.0,0.0,96,0.00,CLR,,0.00,WeatherDisplay:10.37,2013-08-01 10:04:00,
2013-08-01 05:09:00,76.8,75.6,29.89,SE,135,0.0,0.0,96,0.00,CLR,,0.00,WeatherDisplay:10.37,2013-08-01 10:09:00,
2013-08-01 05:14:00,76.8,75.6,29.88,SE,135,0.0,0.0,96,0.00,CLR,,0.00,WeatherDisplay:10.37,2013-08-01 10:14:00,
2013-08-01 05:20:00,76.8,75.9,29.88,SE,135,0.0,0.0,97,0.00,CLR,,0.00,WeatherDisplay:10.37,2013-08-01 10:20:00,
2013-08-01 05:27:00,77.0,76.4,29.88,SE,135,0.0,0.0,98,0.00,CLR,,0.00,WeatherDisplay:10.37,2013-08-01 10:27:00,
2013-08-01 05:32:00,77.0,76.4,29.88,SE,135,1.1,0.0,98,0.00,CLR,,0.00,WeatherDisplay:10.37,2013-08-01 10:32:00,
2013-08-01 05:37:00,77.0,76.4,29.88,SE,135,0.0,0.0,98,0.00,CLR,,0.00,WeatherDisplay:10.37,2013-08-01 10:37:00,
2013-08-01 05:42:00,77.0,76.4,29.89,North,0,1.1,0.0,98,0.00,CLR,,0.00,WeatherDisplay:10.37,2013-08-01 10:42:00,
2013-08-01 05:48:00,77.0,76.4,29.89,North,0,1.1,0.0,98,0.00,CLR,,0.00,WeatherDisplay:10.37,2013-08-01 10:48:00,
2013-08-01 05:54:00,77.0,76.4,29.89,North,0,1.1,0.0,98,0.00,CLR,,0.00,WeatherDisplay:10.37,2013-08-01 10:54:00,
2013-08-01 05:57:00,51.1,44.5,30.30,SE,135,0.0,0.0,78,0.00,,,0.00,Cumulus v1.9.2,2013-08-01 10:57:00,
2013-08-01 05:59:00,77.0,76.4,29.89,North,0,0.0,0.0,98,0.00,CLR,,0.00,WeatherDisplay:10.37,2013-08-01 10:59:00,
2013-08-01 06:04:00,77.0,76.4,29.90,North,0,0.0,0.0,98,0.00,CLR,,0.00,WeatherDisplay:10.37,2013-08-01 11:04:00,
2013-08-01 06:09:00,77.0,76.4,29.90,East,90,0.0,0.0,98,0.00,CLR,,0.00,WeatherDisplay:10.37,2013-08-01 11:09:00,
2013-08-01 06:15:00,77.0,76.4,29.90,North,0,0.0,0.0,98,0.00,CLR,,0.00,WeatherDisplay:10.37,2013-08-01 11:15:00,
2013-08-01 06:20:00,77.0,76.4,29.91,North,0,0.0,0.0,98,0.00,CLR,,0.00,WeatherDisplay:10.37,2013-08-01 11:20:00,
2013-08-01 06:26:00,77.0,76.4,29.90,North,0,0.0,0.0,98,0.00,CLR,,0.00,WeatherDisplay:10.37,2013-08-01 11:26:00,
2013-08-01 06:27:00,53.2,43.3,30.30,SE,135,1.6,1.6,69,0.00,,,0.00,Cumulus v1.9.2,2013-08-01 11:27:00,
2013-08-01 06:31:00,77.0,76.4,29.90,North,0,0.0,0.0,98,0.00,CLR,,0.00,WeatherDisplay:10.37,2013-08-01 11:31:00,
2013-08-01 06:38:00,77.2,76.9,29.91,South,180,0.0,0.0,99,0.00,CLR,,0.00,WeatherDisplay:10.37,2013-08-01 11:38:00,
2013-08-01 06:43:00,77.2,76.9,29.91,South,180,0.0,0.0,99,0.00,CLR,,0.00,WeatherDisplay:10.37,2013-08-01 11:43:00,
2013-08-01 06:48:00,77.2,76.9,29.90,South,180,0.0,0.0,99,0.00,CLR,,0.00,WeatherDisplay:10.37,2013-08-01 11:48:00,
2013-08-01 06:53:00,77.2,76.9,29.91,South,180,0.0,0.0,99,0.00,CLR,,0.00,WeatherDisplay:10.37,2013-08-01 11:53:00,
2013-08-01 06:57:00,55.4,42.6,30.28,NE,45,1.6,1.6,62,0.00,,,0.00,Cumulus v1.9.2,2013-08-01 11:57:00,
2013-08-01 06:58:00,77.4,77.1,29.91,NE,45,0.0,0.0,99,0.00,CLR,,0.00,WeatherDisplay:10.37,2013-08-01 11:58:00,
2013-08-01 07:04:00,77.5,77.2,29.91,NE,45,0.0,0.0,99,0.00,CLR,,0.00,WeatherDisplay:10.37,2013-08-01 12:04:00,
2013-08-01 07:09:00,77.7,77.4,29.90,NE,45,1.1,0.0,99,0.00,CLR,,0.00,WeatherDisplay:10.37,2013-08-01 12:09:00,
2013-08-01 07:14:00,77.7,77.4,29.91,NW,315,1.1,0.0,99,0.00,CLR,,0.00,WeatherDisplay:10.37,2013-08-01 12:14:00,
2013-08-01 07:19:00,77.7,77.4,29.91,South,180,1.1,0.0,99,0.00,CLR,,0.00,WeatherDisplay:10.37,2013-08-01 12:19:00,
2013-08-01 07:24:00,78.1,77.8,29.91,North,0,1.1,0.0,99,0.00,CLR,,0.00,WeatherDisplay:10.37,2013-08-01 12:24:00,
2013-08-01 07:27:00,60.8,45.0,30.25,East,90,2.2,2.2,56,0.00,,,0.00,Cumulus v1.9.2,2013-08-01 12:27:00,
2013-08-01 07:29:00,78.3,78.0,29.90,East,90,2.3,0.0,99,0.00,CLR,,0.00,WeatherDisplay:10.37,2013-08-01 12:29:00,
2013-08-01 07:34:00,78.3,78.0,29.91,NNW,340,0.0,2.0,99,0.00,CLR,,0.00,WeatherDisplay:10.37,2013-08-01 12:34:00,
2013-08-01 07:39:00,78.4,78.1,29.91,WSW,239,0.0,2.0,99,0.00,CLR,,0.00,WeatherDisplay:10.37,2013-08-01 12:39:00,
2013-08-01 07:44:00,78.6,78.3,29.91,NW,321,0.0,2.0,99,0.00,CLR,,0.00,WeatherDisplay:10.37,2013-08-01 12:44:00,
2013-08-01 07:53:00,78.8,78.5,29.91,South,180,0.0,0.0,99,0.00,CLR,,0.00,WeatherDisplay:10.37,2013-08-01 12:53:00,
2013-08-01 07:57:00,63.7,46.2,30.23,East,90,3.1,3.1,53,0.00,,,0.00,Cumulus v1.9.2,2013-08-01 12:57:00,
2013-08-01 07:58:00,79.0,78.4,29.91,SE,135,2.3,2.3,98,0.00,CLR,,0.00,WeatherDisplay:10.37,2013-08-01 12:58:00,
2013-08-01 08:03:00,79.2,78.5,29.91,NW,315,1.1,0.0,98,0.00,CLR,,0.00,WeatherDisplay:10.37,2013-08-01 13:03:00,
2013-08-01 08:09:00,79.3,78.4,29.91,West,270,2.3,2.3,97,0.00,CLR,,0.00,WeatherDisplay:10.37,2013-08-01 13:09:00,
2013-08-01 08:14:00,79.3,78.4,29.91,SW,225,3.5,3.5,97,0.00,CLR,,0.00,WeatherDisplay:10.37,2013-08-01 13:14:00,
2013-08-01 08:19:00,79.5,78.6,29.92,NW,315,1.1,0.0,97,0.00,CLR,,0.00,WeatherDisplay:10.37,2013-08-01 13:19:00,
2013-08-01 08:24:00,79.9,79.0,29.91,SE,135,1.1,0.0,97,0.00,CLR,,0.00,WeatherDisplay:10.37,2013-08-01 13:24:00,
2013-08-01 08:27:00,64.4,44.8,30.22,SE,135,2.2,2.2,49,0.00,,,0.00,Cumulus v1.9.2,2013-08-01 13:27:00,
2013-08-01 08:29:00,80.2,79.0,29.92,West,270,2.3,0.0,96,0.00,CLR,,0.00,WeatherDisplay:10.37,2013-08-01 13:29:00,
2013-08-01 08:34:00,80.6,78.7,29.91,SW,235,1.0,3.0,94,0.00,CLR,,0.00,WeatherDisplay:10.37,2013-08-01 13:34:00,
2013-08-01 08:39:00,80.6,78.4,29.92,SW,224,0.0,3.0,93,0.00,CLR,,0.00,WeatherDisplay:10.37,2013-08-01 13:39:00,
2013-08-01 08:45:00,80.4,77.9,29.92,SW,225,1.1,0.0,92,0.00,CLR,,0.00,WeatherDisplay:10.37,2013-08-01 13:45:00,
2013-08-01 08:50:00,80.6,78.1,29.92,NW,315,1.1,0.0,92,0.00,CLR,,0.00,WeatherDisplay:10.37,2013-08-01 13:50:00,
2013-08-01 08:55:00,80.8,78.2,29.93,West,270,1.1,0.0,92,0.00,CLR,,0.00,WeatherDisplay:10.37,2013-08-01 13:55:00,
2013-08-01 08:57:00,63.9,44.9,30.19,SE,135,1.6,1.6,50,0.00,,,0.00,Cumulus v1.9.2,2013-08-01 13:57:00,
2013-08-01 09:03:00,80.8,78.2,29.93,West,270,1.1,0.0,92,0.00,CLR,,0.00,WeatherDisplay:10.37,2013-08-01 14:03:00,
2013-08-01 09:08:00,81.0,78.4,29.93,South,180,1.1,0.0,92,0.00,CLR,,0.00,WeatherDisplay:10.37,2013-08-01 14:08:00,
2013-08-01 09:14:00,81.1,78.6,29.94,NW,315,0.0,0.0,92,0.00,CLR,,0.00,WeatherDisplay:10.37,2013-08-01 14:14:00,
2013-08-01 09:19:00,81.5,78.3,29.93,South,180,1.1,0.0,90,0.00,CLR,,0.00,WeatherDisplay:10.37,2013-08-01 14:19:00,
2013-08-01 09:24:00,81.7,77.8,29.93,SW,228,1.0,4.0,88,0.00,CLR,,0.00,WeatherDisplay:10.37,2013-08-01 14:24:00,
2013-08-01 09:27:00,63.1,44.7,30.19,ENE,68,2.2,2.2,51,0.00,,,0.00,Cumulus v1.9.2,2013-08-01 14:27:00,
2013-08-01 09:29:00,81.9,77.3,29.92,SW,231,1.0,2.0,86,0.00,CLR,,0.00,WeatherDisplay:10.37,2013-08-01 14:29:00,
2013-08-01 09:34:00,82.1,77.5,29.93,WSW,245,1.0,3.0,86,0.00,CLR,,0.00,WeatherDisplay:10.37,2013-08-01 14:34:00,
2013-08-01 09:39:00,82.4,77.8,29.93,West,274,0.0,2.0,86,0.00,CLR,,0.00,WeatherDisplay:10.37,2013-08-01 14:39:00,
2013-08-01 09:45:00,82.6,76.9,29.92,South,180,3.5,0.0,83,0.00,CLR,,0.00,WeatherDisplay:10.37,2013-08-01 14:45:00,
2013-08-01 09:50:00,82.8,77.4,29.92,SW,225,1.1,1.1,84,0.00,CLR,,0.00,WeatherDisplay:10.37,2013-08-01 14:50:00,
2013-08-01 09:55:00,82.9,77.2,29.93,South,180,1.1,0.0,83,0.00,CLR,,0.00,WeatherDisplay:10.37,2013-08-01 14:55:00,
2013-08-01 09:57:00,61.7,42.9,30.18,SW,225,2.2,2.2,50,0.00,,,0.00,Cumulus v1.9.2,2013-08-01 14:57:00,
2013-08-01 10:00:00,83.1,77.4,29.93,SSW,202,1.1,1.1,83,0.00,CLR,,0.00,WeatherDisplay:10.37,2013-08-01 15:00:00,
2013-08-01 10:05:00,83.3,77.2,29.93,SW,225,1.1,1.1,82,0.00,CLR,,0.00,WeatherDisplay:10.37,2013-08-01 15:05:00,
2013-08-01 10:11:00,83.3,76.9,29.93,SW,225,3.5,3.5,81,0.00,CLR,,0.00,WeatherDisplay:10.37,2013-08-01 15:11:00,
2013-08-01 10:17:00,83.3,76.9,29.93,SE,135,3.5,3.5,81,0.00,CLR,,0.00,WeatherDisplay:10.37,2013-08-01 15:17:00,
2013-08-01 10:22:00,83.1,76.7,29.93,West,270,1.1,0.0,81,0.00,CLR,,0.00,WeatherDisplay:10.37,2013-08-01 15:22:00,
2013-08-01 10:27:00,83.1,75.5,29.93,West,270,1.1,1.1,78,0.00,CLR,,0.00,WeatherDisplay:10.37,2013-08-01 15:27:00,
2013-08-01 10:32:00,83.1,76.7,29.93,West,270,2.3,2.3,81,0.00,CLR,,0.00,WeatherDisplay:10.37,2013-08-01 15:32:00,
2013-08-01 10:38:00,83.3,76.9,29.93,NW,315,1.1,0.0,81,0.00,CLR,,0.00,WeatherDisplay:10.37,2013-08-01 15:38:00,
2013-08-01 10:43:00,83.3,76.9,29.93,South,180,1.1,0.0,81,0.00,CLR,,0.00,WeatherDisplay:10.37,2013-08-01 15:43:00,
2013-08-01 10:48:00,83.3,76.9,29.93,SW,225,1.1,1.1,81,0.00,CLR,,0.00,WeatherDisplay:10.37,2013-08-01 15:48:00,
2013-08-01 10:53:00,83.5,77.0,29.93,SW,225,1.1,0.0,81,0.00,CLR,,0.00,WeatherDisplay:10.37,2013-08-01 15:53:00,
2013-08-01 10:57:00,61.5,43.2,30.17,East,90,0.7,0.7,51,0.00,,,0.00,Cumulus v1.9.2,2013-08-01 15:57:00,
2013-08-01 10:58:00,83.7,76.1,29.93,South,180,2.3,2.3,78,0.00,CLR,,0.00,WeatherDisplay:10.37,2013-08-01 15:58:00,
2013-08-01 11:03:00,84.0,76.4,29.93,West,270,2.3,2.3,78,0.00,CLR,,0.00,WeatherDisplay:10.37,2013-08-01 16:03:00,
2013-08-01 11:08:00,84.2,76.6,29.93,West,270,2.3,0.0,78,0.00,CLR,,0.00,WeatherDisplay:10.37,2013-08-01 16:08:00,
2013-08-01 11:14:00,84.4,76.4,29.93,West,270,1.1,0.0,77,0.00,CLR,,0.00,WeatherDisplay:10.37,2013-08-01 16:14:00,
2013-08-01 11:19:00,84.7,77.1,29.93,South,180,1.1,0.0,78,0.00,CLR,,0.00,WeatherDisplay:10.37,2013-08-01 16:19:00,
2013-08-01 11:24:00,84.9,77.3,29.92,West,260,1.0,4.0,78,0.00,CLR,,0.00,WeatherDisplay:10.37,2013-08-01 16:24:00,
2013-08-01 11:27:00,61.3,43.6,30.16,SE,135,1.6,1.6,52,0.00,,,0.00,Cumulus v1.9.2,2013-08-01 16:27:00,
2013-08-01 11:31:00,84.9,76.9,29.93,East,90,1.1,0.0,77,0.00,CLR,,0.00,WeatherDisplay:10.37,2013-08-01 16:31:00,
2013-08-01 11:36:00,85.5,77.0,29.92,SW,225,3.5,3.5,76,0.00,CLR,,0.00,WeatherDisplay:10.37,2013-08-01 16:36:00,
2013-08-01 11:41:00,85.5,77.0,29.93,NE,45,2.3,0.0,76,0.00,CLR,,0.00,WeatherDisplay:10.37,2013-08-01 16:41:00,
2013-08-01 11:47:00,85.8,77.8,29.93,SW,225,1.1,0.0,77,0.00,CLR,,0.00,WeatherDisplay:10.37,2013-08-01 16:47:00,
2013-08-01 11:52:00,86.0,77.1,29.92,SW,225,1.1,0.0,75,0.00,CLR,,0.00,WeatherDisplay:10.37,2013-08-01 16:52:00,
2013-08-01 11:57:00,86.0,76.3,29.92,NW,315,1.1,0.0,73,0.00,CLR,,0.00,WeatherDisplay:10.37,2013-08-01 16:57:00,
2013-08-01 12:02:00,85.8,76.6,29.92,WNW,292,1.1,0.0,74,0.00,CLR,,0.00,WeatherDisplay:10.37,2013-08-01 17:02:00,
2013-08-01 12:08:00,86.0,76.3,29.91,NE,45,2.3,2.3,73,0.00,CLR,,0.00,WeatherDisplay:10.37,2013-08-01 17:08:00,
2013-08-01 12:13:00,86.4,76.7,29.91,East,90,1.1,0.0,73,0.00,CLR,,0.00,WeatherDisplay:10.37,2013-08-01 17:13:00,
2013-08-01 12:18:00,86.5,76.9,29.91,SW,225,1.1,1.1,73,0.00,CLR,,0.00,WeatherDisplay:10.37,2013-08-01 17:18:00,
2013-08-01 12:23:00,86.7,77.0,29.91,SW,225,1.1,0.0,73,0.00,CLR,,0.00,WeatherDisplay:10.37,2013-08-01 17:23:00,
2013-08-01 12:27:00,59.0,42.8,30.16,South,180,0.7,0.7,55,0.00,,,0.00,Cumulus v1.9.2,2013-08-01 17:27:00,
2013-08-01 12:28:00,86.7,76.6,29.91,SW,225,3.5,3.5,72,0.00,CLR,,0.00,WeatherDisplay:10.37,2013-08-01 17:28:00,
2013-08-01 12:33:00,86.9,77.2,29.91,NW,315,1.1,1.1,73,0.00,CLR,,0.00,WeatherDisplay:10.37,2013-08-01 17:33:00,
2013-08-01 12:38:00,86.9,76.8,29.91,West,270,1.1,0.0,72,0.00,CLR,,0.00,WeatherDisplay:10.37,2013-08-01 17:38:00,
2013-08-01 12:43:00,86.9,76.4,29.90,South,180,2.3,2.3,71,0.00,CLR,,0.00,WeatherDisplay:10.37,2013-08-01 17:43:00,
2013-08-01 12:48:00,86.9,76.4,29.91,NE,45,1.1,0.0,71,0.00,CLR,,0.00,WeatherDisplay:10.37,2013-08-01 17:48:00,
2013-08-01 12:53:00,87.1,76.1,29.90,North,0,2.3,2.3,70,0.00,CLR,,0.00,WeatherDisplay:10.37,2013-08-01 17:53:00,
2013-08-01 12:57:00,56.1,42.4,30.16,SE,135,0.0,0.0,60,0.00,,,0.00,Cumulus v1.9.2,2013-08-01 17:57:00,
2013-08-01 12:58:00,87.1,77.0,29.90,East,90,2.3,0.0,72,0.00,CLR,,0.00,WeatherDisplay:10.37,2013-08-01 17:58:00,
2013-08-01 13:03:00,88.3,77.7,29.90,East,90,3.5,3.5,71,0.00,CLR,,0.00,WeatherDisplay:10.37,2013-08-01 18:03:00,
2013-08-01 13:09:00,89.8,78.2,29.90,SE,135,2.3,0.0,69,0.00,CLR,,0.00,WeatherDisplay:10.37,2013-08-01 18:09:00,
2013-08-01 13:14:00,91.0,77.6,29.90,NW,315,4.6,4.6,65,0.00,CLR,,0.00,WeatherDisplay:10.37,2013-08-01 18:14:00,
2013-08-01 13:19:00,91.9,77.5,29.90,NNE,14,1.0,3.0,63,0.00,CLR,,0.00,WeatherDisplay:10.37,2013-08-01 18:19:00,
2013-08-01 13:25:00,92.7,77.2,29.89,NE,45,4.5,4.5,61,0.00,CLR,,0.00,WeatherDisplay:10.37,2013-08-01 18:25:00,
2013-08-01 13:27:00,51.6,41.8,30.16,North,360,0.0,0.0,69,0.00,,,0.00,Cumulus v1.9.2,2013-08-01 18:27:00,
2013-08-01 13:31:00,93.4,78.4,29.88,East,90,3.5,3.5,62,0.00,CLR,,0.00,WeatherDisplay:10.37,2013-08-01 18:31:00,
2013-08-01 13:36:00,93.9,77.4,29.88,NE,45,5.8,5.8,59,0.00,CLR,,0.00,WeatherDisplay:10.37,2013-08-01 18:36:00,
2013-08-01 13:42:00,94.3,77.7,29.88,East,90,3.5,3.5,59,0.00,CLR,,0.00,WeatherDisplay:10.37,2013-08-01 18:42:00,
2013-08-01 13:48:00,94.6,77.6,29.88,SW,225,3.5,3.5,58,0.00,CLR,,0.00,WeatherDisplay:10.37,2013-08-01 18:48:00,
2013-08-01 13:53:00,95.4,77.7,29.88,SW,225,4.6,4.6,57,0.00,CLR,,0.00,WeatherDisplay:10.37,2013-08-01 18:53:00,
2013-08-01 13:57:00,48.9,41.0,30.17,North,360,0.0,0.0,74,0.00,,,0.00,Cumulus v1.9.2,2013-08-01 18:57:00,
2013-08-01 13:58:00,96.3,77.5,29.88,North,0,3.5,3.5,55,0.00,CLR,,0.00,WeatherDisplay:10.37,2013-08-01 18:58:00,
2013-08-01 14:04:00,96.3,77.5,29.88,SE,135,4.6,4.6,55,0.00,CLR,,0.00,WeatherDisplay:10.37,2013-08-01 19:04:00,
2013-08-01 14:09:00,96.4,77.1,29.88,South,180,3.5,3.5,54,0.00,CLR,,0.00,WeatherDisplay:10.37,2013-08-01 19:09:00,
2013-08-01 14:14:00,97.2,76.0,29.87,WSW,248,3.5,3.5,51,0.00,CLR,,0.00,WeatherDisplay:10.37,2013-08-01 19:14:00,
2013-08-01 14:19:00,98.1,76.2,29.87,SW,225,3.5,3.5,50,0.00,CLR,,0.00,WeatherDisplay:10.37,2013-08-01 19:19:00,
2013-08-01 14:24:00,98.6,73.6,29.87,North,0,2.3,2.3,45,0.00,CLR,,0.00,WeatherDisplay:10.37,2013-08-01 19:24:00,
2013-08-01 14:27:00,46.8,40.3,30.17,North,360,0.7,0.7,78,0.00,,,0.00,Cumulus v1.9.2,2013-08-01 19:27:00,
2013-08-01 14:30:00,99.1,74.7,29.88,SW,225,3.5,3.5,46,0.00,CLR,,0.00,WeatherDisplay:10.37,2013-08-01 19:30:00,
2013-08-01 14:35:00,99.3,75.5,29.87,NW,315,3.5,3.5,47,0.00,CLR,,0.00,WeatherDisplay:10.37,2013-08-01 19:35:00,
2013-08-01 14:41:00,99.1,76.0,29.87,NE,45,3.5,0.0,48,0.00,CLR,,0.00,WeatherDisplay:10.37,2013-08-01 19:41:00,
2013-08-01 14:46:00,99.1,74.1,29.86,NW,315,3.5,3.5,45,0.00,CLR,,0.00,WeatherDisplay:10.37,2013-08-01 19:46:00,
2013-08-01 14:52:00,99.5,74.4,29.86,West,270,3.5,3.5,45,0.00,CLR,,0.00,WeatherDisplay:10.37,2013-08-01 19:52:00,
2013-08-01 14:57:00,99.9,75.4,29.86,WSW,248,2.3,2.3,46,0.00,CLR,,0.00,WeatherDisplay:10.37,2013-08-01 19:57:00,
2013-08-01 15:02:00,100.2,75.0,29.86,SW,225,1.1,0.0,45,0.00,CLR,,0.00,WeatherDisplay:10.37,2013-08-01 20:02:00,
2013-08-01 15:07:00,100.2,73.7,29.86,South,180,3.5,3.5,43,0.00,CLR,,0.00,WeatherDisplay:10.37,2013-08-01 20:07:00,
2013-08-01 15:12:00,99.7,73.9,29.86,SW,225,3.5,3.5,44,0.00,CLR,,0.00,WeatherDisplay:10.37,2013-08-01 20:12:00,
2013-08-01 15:17:00,99.3,74.9,29.86,SE,135,2.3,0.0,46,0.00,CLR,,0.00,WeatherDisplay:10.37,2013-08-01 20:17:00,
2013-08-01 15:22:00,99.5,74.4,29.85,South,180,3.5,3.5,45,0.00,CLR,,0.00,WeatherDisplay:10.37,2013-08-01 20:22:00,
2013-08-01 15:27:00,99.1,73.4,29.85,West,270,3.5,0.0,44,0.00,CLR,,0.00,WeatherDisplay:10.37,2013-08-01 20:27:00,
2013-08-01 15:33:00,98.4,74.7,29.85,East,90,2.3,0.0,47,0.00,CLR,,0.00,WeatherDisplay:10.37,2013-08-01 20:33:00,
2013-08-01 15:38:00,97.5,73.9,29.85,SW,225,2.3,0.0,47,0.00,CLR,,0.00,WeatherDisplay:10.37,2013-08-01 20:38:00,
2013-08-01 15:41:00,97.0,75.3,29.85,South,180,2.3,0.0,50,0.00,CLR,,0.00,WeatherDisplay:10.37,2013-08-01 20:41:00,
2013-08-01 15:47:00,96.8,76.3,29.85,SW,225,1.1,1.1,52,0.00,CLR,,0.00,WeatherDisplay:10.37,2013-08-01 20:47:00,
2013-08-01 15:53:00,97.0,75.9,29.85,SW,225,3.5,3.5,51,0.00,CLR,,0.00,WeatherDisplay:10.37,2013-08-01 20:53:00,
2013-08-01 15:57:00,44.1,39.5,30.17,East,90,0.7,0.7,84,0.00,,,0.00,Cumulus v1.9.2,2013-08-01 20:57:00,
2013-08-01 15:58:00,97.7,76.5,29.84,NW,315,4.6,0.0,51,0.00,CLR,,0.00,WeatherDisplay:10.37,2013-08-01 20:58:00,
2013-08-01 16:03:00,98.2,76.4,29.84,SW,225,1.1,1.1,50,0.00,CLR,,0.00,WeatherDisplay:10.37,2013-08-01 21:03:00,
2013-08-01 16:08:00,98.6,76.7,29.84,NW,315,2.3,2.3,50,0.00,CLR,,0.00,WeatherDisplay:10.37,2013-08-01 21:08:00,
2013-08-01 16:14:00,98.1,76.8,29.83,South,180,2.3,0.0,51,0.00,CLR,,0.00,WeatherDisplay:10.37,2013-08-01 21:14:00,
2013-08-01 16:19:00,96.8,76.8,29.83,West,270,2.3,0.0,53,0.00,CLR,,0.00,WeatherDisplay:10.37,2013-08-01 21:19:00,
2013-08-01 16:24:00,95.7,75.3,29.83,SW,225,2.3,2.3,52,0.00,CLR,,0.00,WeatherDisplay:10.37,2013-08-01 21:24:00,
2013-08-01 16:27:00,42.6,38.4,30.18,North,360,0.7,0.7,85,0.00,,,0.00,Cumulus v1.9.2,2013-08-01 21:27:00,
2013-08-01 16:29:00,95.0,76.8,29.83,NNW,338,1.1,0.0,56,0.00,CLR,,0.00,WeatherDisplay:10.37,2013-08-01 21:29:00,
2013-08-01 16:34:00,93.6,77.6,29.83,SE,135,1.1,0.0,60,0.00,CLR,,0.00,WeatherDisplay:10.37,2013-08-01 21:34:00,
2013-08-01 16:39:00,93.3,76.8,29.83,South,187,0.0,2.0,59,0.00,CLR,,0.00,WeatherDisplay:10.37,2013-08-01 21:39:00,
2013-08-01 16:45:00,93.9,76.9,29.83,South,180,3.5,3.5,58,0.00,CLR,,0.00,WeatherDisplay:10.37,2013-08-01 21:45:00,
2013-08-01 16:50:00,94.5,78.4,29.83,West,270,2.3,0.0,60,0.00,CLR,,0.00,WeatherDisplay:10.37,2013-08-01 21:50:00,
2013-08-01 16:55:00,94.3,77.2,29.83,West,270,1.1,0.0,58,0.00,CLR,,0.00,WeatherDisplay:10.37,2013-08-01 21:55:00,
2013-08-01 16:57:00,41.7,38.1,30.18,SE,135,0.0,0.0,87,0.00,,,0.00,Cumulus v1.9.2,2013-08-01 21:57:00,
2013-08-01 17:00:00,94.6,77.0,29.82,North,0,1.1,0.0,57,0.00,CLR,,0.00,WeatherDisplay:10.37,2013-08-01 22:00:00,
2013-08-01 17:05:00,94.8,77.2,29.82,East,90,3.5,3.5,57,0.00,CLR,,0.00,WeatherDisplay:10.37,2013-08-01 22:05:00,
2013-08-01 17:10:00,95.0,77.9,29.82,West,270,2.3,0.0,58,0.00,CLR,,0.00,WeatherDisplay:10.37,2013-08-01 22:10:00,
2013-08-01 17:15:00,93.9,76.9,29.81,SW,225,1.1,0.0,58,0.00,CLR,,0.00,WeatherDisplay:10.37,2013-08-01 22:15:00,
2013-08-01 17:20:00,93.7,77.8,29.81,West,270,1.1,1.1,60,0.00,CLR,,0.00,WeatherDisplay:10.37,2013-08-01 22:20:00,
2013-08-01 17:25:00,93.2,77.7,29.81,South,180,1.1,0.0,61,0.00,CLR,,0.00,WeatherDisplay:10.37,2013-08-01 22:25:00,
2013-08-01 17:27:00,41.2,38.2,30.18,East,90,0.7,0.7,89,0.00,,,0.00,Cumulus v1.9.2,2013-08-01 22:27:00,
2013-08-01 17:30:00,92.5,78.0,29.81,West,270,1.1,0.0,63,0.00,CLR,,0.00,WeatherDisplay:10.37,2013-08-01 22:30:00,
2013-08-01 17:35:00,92.1,78.2,29.81,South,180,1.1,0.0,64,0.00,CLR,,0.00,WeatherDisplay:10.37,2013-08-01 22:35:00,
2013-08-01 17:40:00,92.3,77.9,29.81,SE,135,1.1,1.1,63,0.00,CLR,,0.00,WeatherDisplay:10.37,2013-08-01 22:40:00,
2013-08-01 17:45:00,92.8,76.4,29.81,South,180,2.3,2.3,59,0.00,CLR,,0.00,WeatherDisplay:10.37,2013-08-01 22:45:00,
2013-08-01 17:50:00,93.4,78.9,29.81,West,270,1.1,0.0,63,0.00,CLR,,0.00,WeatherDisplay:10.37,2013-08-01 22:50:00,
2013-08-01 17:56:00,93.4,77.9,29.81,NW,315,1.1,0.0,61,0.00,CLR,,0.00,WeatherDisplay:10.37,2013-08-01 22:56:00,
2013-08-01 17:57:00,40.6,37.9,30.19,East,90,0.7,0.7,90,0.00,,,0.00,Cumulus v1.9.2,2013-08-01 22:57:00,
2013-08-01 18:01:00,93.7,80.2,29.81,SW,225,1.1,0.0,65,0.00,CLR,,0.00,WeatherDisplay:10.37,2013-08-01 23:01:00,
2013-08-01 18:07:00,93.9,78.9,29.81,West,270,2.3,2.3,62,0.00,CLR,,0.00,WeatherDisplay:10.37,2013-08-01 23:07:00,
2013-08-01 18:12:00,94.1,78.6,29.80,South,180,0.0,0.0,61,0.00,CLR,,0.00,WeatherDisplay:10.37,2013-08-01 23:12:00,
2013-08-01 18:17:00,94.5,78.9,29.80,West,270,1.1,0.0,61,0.00,CLR,,0.00,WeatherDisplay:10.37,2013-08-01 23:17:00,
2013-08-01 18:22:00,94.6,79.1,29.80,West,270,0.0,0.0,61,0.00,CLR,,0.00,WeatherDisplay:10.37,2013-08-01 23:22:00,
2013-08-01 18:27:00,94.1,79.1,29.80,SW,225,2.3,0.0,62,0.00,CLR,,0.00,WeatherDisplay:10.37,2013-08-01 23:27:00,
2013-08-01 18:33:00,93.7,79.2,29.80,East,90,1.1,0.0,63,0.00,CLR,,0.00,WeatherDisplay:10.37,2013-08-01 23:33:00,
2013-08-01 18:38:00,92.8,78.9,29.80,NW,315,1.1,0.0,64,0.00,CLR,,0.00,WeatherDisplay:10.37,2013-08-01 23:38:00,
2013-08-01 18:43:00,92.1,78.7,29.80,SW,225,2.3,0.0,65,0.00,CLR,,0.00,WeatherDisplay:10.37,2013-08-01 23:43:00,
2013-08-01 18:48:00,91.8,78.8,29.80,NE,45,1.1,0.0,66,0.00,CLR,,0.00,WeatherDisplay:10.37,2013-08-01 23:48:00,
2013-08-01 18:53:00,91.2,78.7,29.80,South,180,1.1,1.1,67,0.00,CLR,,0.00,WeatherDisplay:10.37,2013-08-01 23:53:00,
2013-08-01 18:57:00,39.7,37.3,30.19,West,270,0.0,0.0,91,0.00,,,0.00,Cumulus v1.9.2,2013-08-01 23:57:00,
2013-08-01 18:58:00,90.9,78.8,29.80,West,270,1.1,0.0,68,0.00,CLR,,0.00,WeatherDisplay:10.37,2013-08-01 23:58:00,
2013-08-01 19:03:00,90.3,78.3,29.80,West,270,1.1,0.0,68,0.00,CLR,,0.00,WeatherDisplay:10.37,2013-08-02 00:03:00,
2013-08-01 19:09:00,90.1,78.6,29.81,East,90,1.1,0.0,69,0.00,CLR,,0.00,WeatherDisplay:10.37,2013-08-02 00:09:00,
2013-08-01 19:14:00,89.8,78.7,29.81,East,90,0.0,0.0,70,0.00,CLR,,0.00,WeatherDisplay:10.37,2013-08-02 00:14:00,
2013-08-01 19:19:00,89.2,78.2,29.81,East,90,0.0,0.0,70,0.00,CLR,,0.00,WeatherDisplay:10.37,2013-08-02 00:19:00,
2013-08-01 19:24:00,89.2,78.6,29.81,East,90,0.0,0.0,71,0.00,CLR,,0.00,WeatherDisplay:10.37,2013-08-02 00:24:00,
2013-08-01 19:27:00,38.7,36.3,30.19,West,270,0.0,0.0,91,0.00,,,0.00,Cumulus v1.9.2,2013-08-02 00:27:00,
2013-08-01 19:29:00,88.9,78.3,29.81,East,90,0.0,0.0,71,0.00,CLR,,0.00,WeatherDisplay:10.37,2013-08-02 00:29:00,
2013-08-01 19:34:00,88.5,78.3,29.81,East,90,0.0,0.0,72,0.00,CLR,,0.00,WeatherDisplay:10.37,2013-08-02 00:34:00,
2013-08-01 19:39:00,88.2,78.0,29.81,SW,225,0.0,0.0,72,0.00,CLR,,0.00,WeatherDisplay:10.37,2013-08-02 00:39:00,
2013-08-01 19:44:00,87.6,77.9,29.81,SW,225,0.0,0.0,73,0.00,CLR,,0.00,WeatherDisplay:10.37,2013-08-02 00:44:00,
2013-08-01 19:49:00,87.4,78.1,29.82,SW,225,0.0,0.0,74,0.00,CLR,,0.00,WeatherDisplay:10.37,2013-08-02 00:49:00,
2013-08-01 19:54:00,86.9,77.6,29.82,SW,225,0.0,0.0,74,0.00,CLR,,0.00,WeatherDisplay:10.37,2013-08-02 00:54:00,
2013-08-01 19:57:00,38.3,36.2,30.19,SE,135,0.0,0.0,92,0.00,,,0.00,Cumulus v1.9.2,2013-08-02 00:57:00,
2013-08-01 19:59:00,86.5,77.7,29.82,SW,225,0.0,0.0,75,0.00,CLR,,0.00,WeatherDisplay:10.37,2013-08-02 00:59:00,
2013-08-01 20:04:00,86.2,77.7,29.82,SW,225,0.0,0.0,76,0.00,CLR,,0.00,WeatherDisplay:10.37,2013-08-02 01:04:00,
2013-08-01 20:09:00,85.8,77.8,29.82,SW,225,0.0,0.0,77,0.00,CLR,,0.00,WeatherDisplay:10.37,2013-08-02 01:09:00,
2013-08-01 20:14:00,85.3,77.2,29.82,SW,225,0.0,0.0,77,0.00,CLR,,0.00,WeatherDisplay:10.37,2013-08-02 01:14:00,
2013-08-01 20:19:00,85.1,77.5,29.82,SW,225,0.0,0.0,78,0.00,CLR,,0.00,WeatherDisplay:10.37,2013-08-02 01:19:00,
2013-08-01 20:24:00,84.7,77.1,29.82,SW,225,0.0,0.0,78,0.00,CLR,,0.00,WeatherDisplay:10.37,2013-08-02 01:24:00,
2013-08-01 20:27:00,37.8,35.9,30.19,North,360,0.0,0.0,93,0.00,,,0.00,Cumulus v1.9.2,2013-08-02 01:27:00,
2013-08-01 20:29:00,84.6,77.3,29.82,SW,225,0.0,0.0,79,0.00,CLR,,0.00,WeatherDisplay:10.37,2013-08-02 01:29:00,
2013-08-01 20:34:00,84.2,77.4,29.82,SW,225,0.0,0.0,80,0.00,CLR,,0.00,WeatherDisplay:10.37,2013-08-02 01:34:00,
2013-08-01 20:40:00,84.0,77.6,29.83,SW,225,0.0,0.0,81,0.00,CLR,,0.00,WeatherDisplay:10.37,2013-08-02 01:40:00,
2013-08-01 20:45:00,84.0,77.6,29.83,SW,225,0.0,0.0,81,0.00,CLR,,0.00,WeatherDisplay:10.37,2013-08-02 01:45:00,
2013-08-01 20:50:00,84.2,78.1,29.83,SW,225,0.0,0.0,82,0.00,CLR,,0.00,WeatherDisplay:10.37,2013-08-02 01:50:00,
2013-08-01 20:55:00,84.0,77.9,29.83,SW,225,0.0,0.0,82,0.00,CLR,,0.00,WeatherDisplay:10.37,2013-08-02 01:55:00,
2013-08-01 21:00:00,84.0,77.9,29.84,SW,225,0.0,0.0,82,0.00,CLR,,0.00,WeatherDisplay:10.37,2013-08-02 02:00:00,
2013-08-01 21:05:00,84.0,77.9,29.83,SW,225,0.0,0.0,82,0.00,CLR,,0.00,WeatherDisplay:10.37,2013-08-02 02:05:00,
2013-08-01 21:10:00,84.0,77.9,29.84,NE,45,1.1,0.0,82,0.00,CLR,,0.00,WeatherDisplay:10.37,2013-08-02 02:10:00,
2013-08-01 21:15:00,84.0,78.3,29.84,West,270,0.0,0.0,83,0.00,CLR,,0.00,WeatherDisplay:10.37,2013-08-02 02:15:00,
2013-08-01 21:20:00,83.8,78.1,29.85,West,270,0.0,0.0,83,0.00,CLR,,0.00,WeatherDisplay:10.37,2013-08-02 02:20:00,
2013-08-01 21:25:00,83.8,78.1,29.85,West,270,0.0,0.0,83,0.00,CLR,,0.00,WeatherDisplay:10.37,2013-08-02 02:25:00,
2013-08-01 21:27:00,37.0,35.5,30.19,NW,315,0.0,0.0,94,0.00,,,0.00,Cumulus v1.9.2,2013-08-02 02:27:00,
2013-08-01 21:30:00,83.5,77.8,29.85,West,270,0.0,0.0,83,0.00,CLR,,0.00,WeatherDisplay:10.37,2013-08-02 02:30:00,
2013-08-01 21:35:00,83.3,77.6,29.84,West,270,0.0,0.0,83,0.00,CLR,,0.00,WeatherDisplay:10.37,2013-08-02 02:35:00,
2013-08-01 21:41:00,83.3,78.0,29.85,West,270,0.0,0.0,84,0.00,CLR,,0.00,WeatherDisplay:10.37,2013-08-02 02:41:00,
2013-08-01 21:46:00,83.1,77.8,29.85,West,270,0.0,0.0,84,0.00,CLR,,0.00,WeatherDisplay:10.37,2013-08-02 02:46:00,
2013-08-01 21:52:00,82.9,77.6,29.84,West,270,1.1,0.0,84,0.00,CLR,,0.00,WeatherDisplay:10.37,2013-08-02 02:52:00,
2013-08-01 21:57:00,82.8,77.4,29.85,West,270,0.0,0.0,84,0.00,CLR,,0.00,WeatherDisplay:10.37,2013-08-02 02:57:00,
2013-08-01 22:02:00,82.6,77.6,29.85,West,270,0.0,0.0,85,0.00,CLR,,0.00,WeatherDisplay:10.37,2013-08-02 03:02:00,
2013-08-01 22:07:00,82.4,77.4,29.85,West,270,0.0,0.0,85,0.00,CLR,,0.00,WeatherDisplay:10.37,2013-08-02 03:07:00,
2013-08-01 22:12:00,82.4,77.8,29.85,West,270,0.0,0.0,86,0.00,CLR,,0.00,WeatherDisplay:10.37,2013-08-02 03:12:00,
2013-08-01 22:17:00,82.2,77.6,29.85,West,270,0.0,0.0,86,0.00,CLR,,0.00,WeatherDisplay:10.37,2013-08-02 03:17:00,
2013-08-01 22:22:00,82.2,77.6,29.85,West,270,0.0,0.0,86,0.00,CLR,,0.00,WeatherDisplay:10.37,2013-08-02 03:22:00,
2013-08-01 22:27:00,81.9,77.6,29.85,West,270,0.0,0.0,87,0.00,CLR,,0.00,WeatherDisplay:10.37,2013-08-02 03:27:00,
2013-08-01 22:32:00,81.9,77.6,29.85,West,270,0.0,0.0,87,0.00,CLR,,0.00,WeatherDisplay:10.37,2013-08-02 03:32:00,
2013-08-01 22:37:00,81.7,77.8,29.85,North,0,1.1,0.0,88,0.00,CLR,,0.00,WeatherDisplay:10.37,2013-08-02 03:37:00,
2013-08-01 22:43:00,81.5,77.6,29.85,North,0,1.1,0.0,88,0.00,CLR,,0.00,WeatherDisplay:10.37,2013-08-02 03:43:00,
2013-08-01 22:48:00,81.5,77.3,29.85,North,0,0.0,0.0,87,0.00,CLR,,0.00,WeatherDisplay:10.37,2013-08-02 03:48:00,
2013-08-01 22:53:00,81.3,77.1,29.86,SW,225,1.1,0.0,87,0.00,CLR,,0.00,WeatherDisplay:10.37,2013-08-02 03:53:00,
2013-08-01 22:57:00,36.3,35.0,30.18,North,360,1.6,1.6,95,0.00,,,0.00,Cumulus v1.9.2,2013-08-02 03:57:00,
2013-08-01 22:58:00,81.1,77.2,29.86,NE,45,0.0,0.0,88,0.00,CLR,,0.00,WeatherDisplay:10.37,2013-08-02 03:58:00,
2013-08-01 23:01:00,81.0,77.1,29.86,NE,45,0.0,0.0,88,0.00,CLR,,0.00,WeatherDisplay:10.37,2013-08-02 04:01:00,
2013-08-01 23:02:00,81.0,77.1,29.86,NE,45,0.0,0.0,88,0.00,CLR,,0.00,WeatherDisplay:10.37,2013-08-02 04:02:00,
2013-08-01 23:03:00,81.0,77.1,29.86,NE,45,0.0,0.0,88,0.00,CLR,,0.00,WeatherDisplay:10.37,2013-08-02 04:03:00,
2013-08-01 23:04:00,81.0,77.1,29.86,NE,45,0.0,0.0,88,0.00,CLR,,0.00,WeatherDisplay:10.37,2013-08-02 04:04:00,
2013-08-01 23:09:00,81.0,77.1,29.86,NE,45,0.0,0.0,88,0.00,CLR,,0.00,WeatherDisplay:10.37,2013-08-02 04:09:00,
2013-08-01 23:14:00,80.6,76.7,29.86,North,11,0.0,0.0,88,0.00,CLR,,0.00,WeatherDisplay:10.37,2013-08-02 04:14:00,
2013-08-01 23:19:00,80.4,76.5,29.86,NW,321,0.0,1.0,88,0.00,CLR,,0.00,WeatherDisplay:10.37,2013-08-02 04:19:00,
2013-08-01 23:20:00,80.4,76.5,29.86,NW,315,0.0,0.0,88,0.00,CLR,,0.00,WeatherDisplay:10.37,2013-08-02 04:20:00,
2013-08-01 23:25:00,80.2,76.7,29.85,NW,315,0.0,0.0,89,0.00,CLR,,0.00,WeatherDisplay:10.37,2013-08-02 04:25:00,
2013-08-01 23:27:00,36.5,35.5,30.17,North,360,1.6,1.6,96,0.00,,,0.00,Cumulus v1.9.2,2013-08-02 04:27:00,
2013-08-01 23:30:00,80.2,76.7,29.85,NW,315,0.0,0.0,89,0.00,CLR,,0.00,WeatherDisplay:10.37,2013-08-02 04:30:00,
2013-08-01 23:35:00,80.1,76.5,29.85,NW,315,0.0,0.0,89,0.00,CLR,,0.00,WeatherDisplay:10.37,2013-08-02 04:35:00,
2013-08-01 23:40:00,79.9,76.3,29.85,NW,315,0.0,0.0,89,0.00,CLR,,0.00,WeatherDisplay:10.37,2013-08-02 04:40:00,
2013-08-01 23:45:00,79.7,76.5,29.85,NW,315,0.0,0.0,90,0.00,CLR,,0.00,WeatherDisplay:10.37,2013-08-02 04:45:00,
2013-08-01 23:50:00,79.7,76.5,29.85,NW,315,0.0,0.0,90,0.00,CLR,,0.00,WeatherDisplay:10.37,2013-08-02 04:50:00,
2013-08-01 23:55:00,79.5,76.3,29.85,SW,225,0.0,0.0,90,0.00,CLR,,0.00,WeatherDisplay:10.37,2013-08-02 04:55:00,
2013-08-01 23:57:00,36.0,34.9,30.18,NW,315,0.0,0.0,96,0.00,,,0.00,Cumulus v1.9.2,2013-08-02 04:57:00,